Weather History for KMWH - August, 2013

Change the Weather History Date:

Wednesday, August 28, 2013

  Actual Average Record
Temperature  
Mean Temperature 73 °F 69 °F  
Max Temperature 89 °F 85 °F 99 °F (1998)
Min Temperature 56 °F 53 °F 38 °F (1984)
Degree Days  
Heating Degree Days 0 1  
Month to date heating degree days 0 5  
Since 1 June heating degree days 49 68  
Since 1 July heating degree days 0 13  
Cooling Degree Days 8 5  
Month to date cooling degree days 258 203  
Year to date cooling degree days 791 557  
Since 1 June cooling degree days 741 532  
Growing Degree Days 22 (Base 50)    
Moisture  
Dew Point 50 °F    
Average Humidity 51    
Maximum Humidity 77    
Minimum Humidity 24    
Precipitation  
Precipitation 0.00 in 0.01 in 0.02 in (1983)
Month to date precipitation 0.56 0.23  
Year to date precipitation 4.31 5.41  
Sea Level Pressure  
Sea Level Pressure 29.81 in    
Wind  
Wind Speed 5 mph (NNE)    
Max Wind Speed 14 mph    
Max Gust Speed 17 mph    
Visibility 10 miles    
Events      
T = Trace of Precipitation, MM = Missing Value Source: NWS Daily Summary

Daily Weather History Graph

Daily Weather History Graph

Search for Another Location

Airport or City:

Trip Planner

Search our weather history database for the weather conditions in past years. The results will help you decide how hot, cold, wet, or windy it might be!

Date:

Astronomy

Aug. 28, 2013 Rise Set
Actual Time 6:11 AM PDT 7:44 PM PDT
Civil Twilight 5:39 AM PDT 8:16 PM PDT
Nautical Twilight 5:00 AM PDT 8:54 PM PDT
Astronomical Twilight 4:18 AM PDT 9:36 PM PDT
Moon 11:56 PM PDT (8/28) 2:37 PM PDT (8/28)
Length of Visible Light 14h 36m
Length of Day
13h 32m
Last Quarter, 46% of the Moon is Illuminated
Aug 28
Last Quarter
Sep 5
New
Sep 12
First Quarter
Sep 19
Full
Sep 26
Last Quarter

Hourly Weather History & Observations

Time (PDT) Temp. Dew Point Humidity Pressure Visibility Wind Dir Wind Speed Gust Speed Precip Events Conditions
12:52 AM 62.1 °F 50.0 °F 65% 29.77 in 10.0 mi North 5.8 mph - N/A   Clear
1:52 AM 61.0 °F 50.0 °F 67% 29.77 in 10.0 mi North 5.8 mph - N/A   Clear
2:52 AM 61.0 °F 48.9 °F 64% 29.76 in 10.0 mi NNE 6.9 mph - N/A   Clear
3:52 AM 55.9 °F 48.9 °F 77% 29.75 in 10.0 mi North 6.9 mph - N/A   Clear
4:52 AM 57.0 °F 48.9 °F 74% 29.76 in 10.0 mi North 3.5 mph - N/A   Clear
5:52 AM 59.0 °F 48.9 °F 69% 29.77 in 10.0 mi Calm Calm - N/A   Clear
6:52 AM 57.9 °F 48.9 °F 72% 29.80 in 10.0 mi Calm Calm - N/A   Clear
7:52 AM 64.9 °F 50.0 °F 58% 29.82 in 10.0 mi Calm Calm - N/A   Clear
8:52 AM 71.1 °F 50.0 °F 47% 29.82 in 10.0 mi NNE 3.5 mph - N/A   Clear
9:52 AM 75.9 °F 50.0 °F 40% 29.83 in 10.0 mi North 5.8 mph - N/A   Clear
10:52 AM 80.1 °F 51.1 °F 36% 29.83 in 10.0 mi Variable 4.6 mph - N/A   Clear
11:52 AM 84.0 °F 51.1 °F 32% 29.83 in 10.0 mi Variable 5.8 mph - N/A   Clear
12:52 PM 84.9 °F 51.1 °F 31% 29.83 in 10.0 mi SE 6.9 mph - N/A   Clear
1:52 PM 87.1 °F 48.9 °F 27% 29.83 in 10.0 mi Variable 6.9 mph - N/A   Clear
2:52 PM 88.0 °F 46.9 °F 24% 29.83 in 10.0 mi SSW 10.4 mph - N/A   Clear
3:52 PM 88.0 °F 50.0 °F 27% 29.83 in 10.0 mi South 8.1 mph - N/A   Clear
4:52 PM 88.0 °F 48.9 °F 26% 29.82 in 10.0 mi ESE 6.9 mph - N/A   Clear
5:52 PM 87.1 °F 48.9 °F 27% 29.82 in 10.0 mi SSW 6.9 mph - N/A   Clear
6:52 PM 84.9 °F 48.9 °F 29% 29.81 in 10.0 mi ESE 3.5 mph - N/A   Clear
7:52 PM 78.1 °F 52.0 °F 40% 29.80 in 10.0 mi North 4.6 mph - N/A   Clear
8:52 PM 77.0 °F 53.1 °F 43% 29.82 in 10.0 mi Calm Calm - N/A   Clear
9:52 PM 75.0 °F 54.0 °F 48% 29.83 in 10.0 mi Calm Calm - N/A   Clear
10:52 PM 73.9 °F 52.0 °F 46% 29.84 in 10.0 mi WNW 4.6 mph - N/A   Clear
11:52 PM 70.0 °F 53.1 °F 55% 29.84 in 10.0 mi North 6.9 mph - N/A   Clear